Date String (YYYY-MM-DD hh:mm:ss) UTC,Instrument flags,absolute air pressure of the measurement (hPa),sample flow rate (lpm),inlet stack bypass flow (lpm),air temperature of the measurement (°C),ambient temperature measured by the external sensor (°C),aerosol sample conditioner tube jacket temperature (°C),OPC LED temperature (°C),internal box temperature (°C),relative humidity of the measurement (%),span deviation,mass concentration of particles derived from Lorenz-Mie calculation of OPC scattering (μg/m³),mass concentration of particles derived from Lorenz-Mie calculation of OPC scattering (μg/m³),mass concentration of particles derived from Lorenz-Mie calculation of OPC scattering (μg/m³)
DateTimeUTC,F1_M11,P_M11,Q1_M11,Q2_M11,T1_M11,T2_M11,T3_M11,T4_M11,T5_M11,U1_M11,ZSPAN_M11,X2_M11,X0_M11,X1_M11
2024-02-16 22:00:00,SystemResetWarning,0830.2,5.00,000.00,018.4,017.8,000.0,027.1,020.0,19.3,0001.0,0006.66,0009.15,0006.41
2024-02-16 22:01:00,SystemResetWarning,0830.2,5.00,000.00,018.4,017.7,000.0,027.1,020.0,19.3,0001.1,0006.67,0009.15,0006.41
2024-02-16 22:02:00,SystemResetWarning,0830.2,5.01,000.00,018.4,017.7,000.0,027.1,020.0,19.3,0001.2,0006.70,0009.19,0006.42
2024-02-16 22:03:00,SystemResetWarning,0830.2,5.01,000.00,018.5,018.2,000.0,027.2,020.4,19.3,0001.0,0006.66,0009.17,0006.39
2024-02-16 22:04:00,SystemResetWarning,0830.3,4.98,000.00,018.7,019.1,000.0,027.3,020.9,19.0,0001.0,0006.61,0009.15,0006.34
2024-02-16 22:05:00,SystemResetWarning,0830.3,4.99,000.00,018.9,019.2,000.0,027.2,020.9,18.9,0001.2,0006.56,0009.08,0006.30
2024-02-16 22:06:00,SystemResetWarning,0830.3,5.01,000.00,018.8,019.0,000.0,027.2,020.7,18.9,0001.0,0006.55,0009.10,0006.29
2024-02-16 22:07:00,SystemResetWarning,0830.3,5.00,000.00,018.8,018.8,000.0,027.2,020.5,18.9,0001.1,0006.60,0009.18,0006.33
2024-02-16 22:08:00,SystemResetWarning,0830.3,5.00,000.00,018.8,018.6,000.0,027.1,020.4,18.9,0001.0,0006.60,0009.21,0006.34
2024-02-16 22:09:00,SystemResetWarning,0830.3,5.00,000.00,018.7,018.5,000.0,027.1,020.3,19.0,0001.2,0006.54,0009.12,0006.31
2024-02-16 22:10:00,SystemResetWarning,0830.3,5.00,000.00,018.7,018.3,000.0,027.1,020.2,19.0,0001.2,0006.50,0009.12,0006.28
2024-02-16 22:11:00,SystemResetWarning,0830.3,5.00,000.00,018.6,018.2,000.0,027.1,020.1,19.1,0001.2,0006.47,0009.14,0006.25
2024-02-16 22:12:00,SystemResetWarning,0830.3,4.99,000.00,018.6,018.1,000.0,027.0,020.0,19.2,0001.3,0006.43,0009.09,0006.24
2024-02-16 22:13:00,SystemResetWarning,0830.4,5.00,000.00,018.5,018.0,000.0,027.0,020.0,19.2,0001.4,0006.39,0009.06,0006.20
2024-02-16 22:14:00,SystemResetWarning,0830.4,5.00,000.00,018.5,017.9,000.0,027.1,020.0,19.3,0001.6,0006.37,0009.05,0006.19
2024-02-16 22:15:00,SystemResetWarning,0830.4,5.00,000.00,018.5,017.9,000.0,027.1,020.0,19.3,0001.7,0006.40,0009.07,0006.22
2024-02-16 22:16:00,SystemResetWarning,0830.4,5.01,000.00,018.4,017.8,000.0,027.1,020.0,19.3,0001.7,0006.38,0009.04,0006.22
2024-02-16 22:17:00,SystemResetWarning,0830.4,5.00,000.00,018.4,017.8,000.0,027.1,020.0,19.3,0001.8,0006.37,0009.07,0006.21
2024-02-16 22:18:00,SystemResetWarning,0830.4,4.99,000.00,018.4,017.7,000.0,027.1,020.0,19.3,0002.0,0006.37,0009.08,0006.20
2024-02-16 22:19:00,SystemResetWarning,0830.6,5.00,000.00,018.5,018.3,000.0,027.2,020.4,19.2,0002.0,0006.32,0009.01,0006.17
2024-02-16 22:20:00,SystemResetWarning,0830.6,5.01,000.00,018.7,019.1,000.0,027.3,021.0,19.0,0002.3,0006.33,0009.02,0006.18
2024-02-16 22:21:00,SystemResetWarning,0830.5,4.99,000.00,018.9,019.2,000.0,027.2,020.9,18.8,0002.4,0006.34,0009.03,0006.18
2024-02-16 22:22:00,SystemResetWarning,0830.5,4.99,000.00,018.8,019.1,000.0,027.2,020.7,18.8,0002.3,0006.29,0008.90,0006.14
2024-02-16 22:23:00,SystemResetWarning,0830.6,5.01,000.00,018.8,018.9,000.0,027.1,020.5,18.8,0002.2,0006.22,0009.05,0006.07
2024-02-16 22:24:00,SystemResetWarning,0830.6,5.01,000.00,018.8,018.7,000.0,027.1,020.4,18.9,0002.1,0006.11,0009.06,0005.96
2024-02-16 22:25:00,SystemResetWarning,0830.6,5.00,000.00,018.7,018.5,000.0,027.1,020.2,18.9,0002.0,0005.99,0008.93,0005.85
2024-02-16 22:26:00,SystemResetWarning,0830.6,5.00,000.00,018.7,018.4,000.0,027.1,020.2,19.0,0001.9,0005.84,0008.73,0005.70
2024-02-16 22:27:00,SystemResetWarning,0830.6,4.99,000.00,018.6,018.2,000.0,027.0,020.1,19.0,0001.8,0005.71,0008.57,0005.56
2024-02-16 22:28:00,SystemResetWarning,0830.7,4.99,000.00,018.6,018.1,000.0,027.0,020.0,19.1,0001.8,0005.60,0008.39,0005.46
2024-02-16 22:29:00,SystemResetWarning,0830.7,5.01,000.00,018.5,018.0,000.0,027.1,020.0,19.2,0001.6,0005.45,0008.16,0005.33
2024-02-16 22:30:00,SystemResetWarning,0830.7,5.01,000.00,018.5,017.9,000.0,027.1,020.0,19.2,0001.3,0005.35,0008.02,0005.24
2024-02-16 22:31:00,SystemResetWarning,0830.8,5.00,000.00,018.5,017.8,000.0,027.1,020.0,19.2,0001.0,0005.25,0007.92,0005.14
2024-02-16 22:32:00,SystemResetWarning,0830.7,5.00,000.00,018.4,017.8,000.0,027.0,020.0,19.2,0000.5,0005.12,0007.74,0005.02
2024-02-16 22:33:00,SystemResetWarning,0830.7,5.00,000.00,018.4,017.8,000.0,027.0,020.0,19.1,0000.4,0005.03,0007.65,0004.93
2024-02-16 22:34:00,SystemResetWarning,0830.8,4.99,000.00,018.4,017.7,000.0,027.1,020.0,19.2,0000.8,0005.00,0007.45,0004.89
2024-02-16 22:35:00,SystemResetWarning,0830.7,5.00,000.00,018.4,017.7,000.0,027.1,020.0,19.2,0000.9,0004.96,0007.07,0004.86
2024-02-16 22:36:00,SystemResetWarning,0830.7,5.01,000.00,018.5,018.1,000.0,027.2,020.3,19.1,0001.2,0004.93,0006.94,0004.84
2024-02-16 22:37:00,SystemResetWarning,0830.8,5.02,000.00,018.7,019.0,000.0,027.2,020.9,18.8,0001.1,0004.94,0006.93,0004.85
2024-02-16 22:38:00,SystemResetWarning,0830.8,4.99,000.00,018.9,019.2,000.0,027.2,020.9,18.6,0001.3,0004.99,0007.03,0004.89
2024-02-16 22:39:00,SystemResetWarning,0830.8,4.99,000.00,018.8,019.0,000.0,027.2,020.7,18.6,0001.1,0005.02,0007.13,0004.91
2024-02-16 22:40:00,SystemResetWarning,0830.8,4.99,000.00,018.8,018.8,000.0,027.1,020.6,18.6,0000.9,0005.03,0007.18,0004.92
2024-02-16 22:41:00,SystemResetWarning,0830.8,5.00,000.00,018.8,018.7,000.0,027.1,020.4,18.7,0001.0,0005.04,0007.24,0004.92
2024-02-16 22:42:00,SystemResetWarning,0830.9,5.00,000.00,018.7,018.5,000.0,027.1,020.2,18.8,0001.2,0005.00,0007.14,0004.89
2024-02-16 22:43:00,SystemResetWarning,0830.9,5.01,000.00,018.7,018.3,000.0,027.1,020.1,18.9,0001.5,0005.00,0007.13,0004.88
2024-02-16 22:44:00,SystemResetWarning,0830.8,5.01,000.00,018.6,018.2,000.0,027.0,020.1,18.9,0001.5,0004.95,0006.99,0004.84
2024-02-16 22:45:00,SystemResetWarning,0830.9,5.00,000.00,018.6,018.1,000.0,027.0,020.0,18.9,0001.4,0004.87,0006.80,0004.76
2024-02-16 22:46:00,SystemResetWarning,0830.9,5.00,000.00,018.5,018.0,000.0,027.0,020.0,19.0,0001.4,0004.82,0006.70,0004.72
2024-02-16 22:47:00,SystemResetWarning,0831.0,5.00,000.00,018.5,017.9,000.0,027.0,020.0,19.0,0001.3,0004.83,0006.74,0004.72
2024-02-16 22:48:00,SystemResetWarning,0831.0,4.99,000.00,018.4,017.8,000.0,027.1,020.0,19.0,0001.1,0004.78,0006.67,0004.66
2024-02-16 22:49:00,SystemResetWarning,0831.1,5.01,000.00,018.4,017.8,000.0,027.1,020.1,19.0,0001.2,0004.72,0006.61,0004.61
2024-02-16 22:50:00,SystemResetWarning,0831.1,5.02,000.00,018.5,018.3,000.0,027.2,020.4,19.0,0000.9,0004.67,0006.52,0004.57
2024-02-16 22:51:00,SystemResetWarning,0831.1,5.00,000.00,018.8,019.1,000.0,027.3,021.0,18.8,0001.2,0004.68,0006.61,0004.55
2024-02-16 22:52:00,SystemResetWarning,0831.2,4.99,000.00,018.9,019.2,000.0,027.2,020.9,18.6,0001.1,0004.66,0006.58,0004.52
2024-02-16 22:53:00,SystemResetWarning,0831.1,4.99,000.00,018.9,019.0,000.0,027.2,020.7,18.6,0000.8,0004.66,0006.62,0004.50
2024-02-16 22:54:00,SystemResetWarning,0831.1,5.00,000.00,018.8,018.8,000.0,027.1,020.5,18.6,0000.8,0004.65,0006.64,0004.48
2024-02-16 22:55:00,SystemResetWarning,0831.2,5.00,000.00,018.8,018.7,000.0,027.1,020.4,18.7,0001.1,0004.65,0006.62,0004.48
2024-02-16 22:56:00,SystemResetWarning,0831.1,5.01,000.00,018.7,018.5,000.0,027.1,020.3,18.7,0001.0,0004.65,0006.72,0004.49
2024-02-16 22:57:00,SystemResetWarning,0831.2,5.00,000.00,018.7,018.4,000.0,027.1,020.2,18.7,0000.7,0004.66,0007.19,0004.49
2024-02-16 22:58:00,SystemResetWarning,0831.2,5.00,000.00,018.6,018.3,000.0,027.1,020.1,18.7,0000.8,0004.63,0007.13,0004.46
2024-02-16 22:59:00,SystemResetWarning,0831.2,5.00,000.00,018.6,018.2,000.0,027.1,020.1,18.7,0000.6,0004.63,0007.37,0004.47
